UARR

Details ICAO UARR (URA)
Name URALSK
Region Kazakhstan and Kyrgyzstan
Timezone Asia/Oral (UTC+5.0)
Plans Departing 39
Arriving 38
Stats Elevation 125 ft / 38 m (AMSL)
Location 51.150900° 51.541500°
Runways 1
Magnetic Variation 11.050° E
Sunrise 2019-05-22 00:36:11 UTC / 2019-05-22 05:36:11 Local
Sunset 2019-05-22 16:27:37 UTC / 2019-05-22 21:27:37 Local
Advertisement - Login to hide

Runways

ID Width Length Bearing (true/mag) Surface Threshold Overrun Markings Lighting
04 138 ft / 42 m 7,858 ft / 2,395 m 51.88° / 40.83° CONCRETE 0 ft / 0 m 0 ft / 0 m APP EDGE THRESHOLD MALS
22 138 ft / 42 m 7,858 ft / 2,395 m 231.90° / 220.85° CONCRETE 0 ft / 0 m 0 ft / 0 m PREC-APP EDGE THRESHOLD MALS

Approach Navaids

Runway Type Ident Frequency Range Bearing (true/mag) Slope Elevation
22 LOC-ILS IUR 109.70 MHz 18 nm / 33 km 230.24° / 219.19° - 125 ft / 38 m (AMSL)
22 GS IUR 109.70 MHz 10 nm / 19 km 232.78° / 221.73° 2.40° 125 ft / 38 m (AMSL)
22 OM OM - - 231.89° / 220.84° - 125 ft / 38 m (AMSL)
22 MM MM - - 231.89° / 220.84° - 125 ft / 38 m (AMSL)

Map

Weather


0- 5 10 15 20 25 30 35+ Temperature / °C

Clouds and Precipitation
Forecast for 2019-05-22 12:00 UTC. Updated 6 hours ago

Ground ~20,000 ft ~40,000 ft Winds

METAR

UARR 221500Z 24005MPS CAVOK 22/06 Q1014 R22/CLRD70 NOSIG RMK QFE757/1010

TAF

Not found

Frequencies

Tower 119.70 MHz
Warning: Do not use this data for real-world aviation or navigation. No guarantee of current accuracy is given.